Regional Weather Roundup
Issued by NWS

Home | Current Version | Previous Version | Graphics & Text | Print | Product List | Glossary On
Versions: 1 2 3 4 5 6 7 8 9 10 11 12 13 14 15 16 17 18 19 20 21 22 23 24 25 26 27 28 29 30 31 32 33 34 35 36 37 38 39 40 41 42 43 44 45 46 47 48 49 50
000
ASUS43 KTOP 300908
RWRKS

WEATHER ROUNDUP FOR KANSAS
NATIONAL WEATHER SERVICE GOODLAND KS
300 AM CST FRI JAN 30 2015

NOTE:  "FAIR" INDICATES FEW OR NO CLOUDS BELOW 12,000 FEET WITH NO
SIGNIFICANT WEATHER AND/OR OBSTRUCTIONS TO VISIBILITY.

KSZ001>006-013>018-027>032-041>047-301000-
NORTHWEST KANSAS

CITY           SKY/WX    TMP DP  RH WIND       PRES   REMARKS
GOODLAND       MOCLDY    28  21  75 S12       30.40F WCI  18
HAYS           CLEAR     21  10  63 N5        30.49S
HILL CITY      PTCLDY    18  13  80 CALM      30.48F
RUSSELL        CLEAR     21  18  88 SW7       30.48S
$$

KSZ061>065-074>080-084>089-301000-
SOUTHWEST KANSAS

CITY           SKY/WX    TMP DP  RH WIND       PRES   REMARKS
DODGE CITY     PTCLDY    23  17  78 SW7       30.48S
ELKHART          N/A     35  23  61 S8          N/A
GARDEN CITY    MOCLDY    26  19  74 SW6       30.46S
LIBERAL        CLOUDY    32  21  64 S3        30.48F
PRATT          PTCLDY    25  21  86 CALM      30.50F
$$

KSZ066>073-081>083-090>101-301000-
SOUTHEAST KANSAS

CITY           SKY/WX    TMP DP  RH WIND       PRES   REMARKS
CHANUTE        CLEAR     25  22  88 N5        30.54S
COFFEYVILLE    CLEAR     24  21  88 N6        30.54S
HUTCHINSON     PTCLDY    23  19  85 CALM      30.51S
MEDICINE LODGE   N/A     24  20  84 N3        30.52S
NEWTON         PTCLDY    25  18  74 E5        30.52S
PARSONS        CLEAR     21  20  96 CALM      30.54F
WICHITA INTL   PTCLDY    24  20  84 CALM      30.52S
WICHITA JABRA  PTCLDY    26  22  84 CALM      30.52S
WICHITA MCCONL PTCLDY    28  23  79 CALM      30.52S
WINFIELD       PTCLDY    23  20  88 CALM      30.54S
$$

KSZ007>012-019>026-033>040-048>060-102>105-301000-
NORTHEAST KANSAS

CITY           SKY/WX    TMP DP  RH WIND       PRES   REMARKS
CONCORDIA      PTCLDY    19  17  92 E5        30.52F
EMPORIA        PTCLDY    22  20  92 NW3       30.53S
LAWRENCE       CLEAR     16  13  88 NW6       30.56R
MANHATTAN      PTCLDY    18  16  92 CALM      30.56S
MARYSVILLE     CLEAR     19  18  93 CALM      30.54F
OLATHE IND     CLEAR     23  20  88 NW6       30.54S
OLATHE EXE     CLEAR     25  21  85 NW6       30.52S
SALINA         PTCLDY    26  19  74 CALM      30.53S
TOPEKA BILLARD CLEAR     20  17  88 CALM      30.56S
TOPEKA FORBES  CLEAR     20  16  84 W6        30.54S
$$


USA.gov is the U.S. government's official web portal to all federal, state and local government web resources and services.